Location: Allen Lane School
(37.8198°N, 89.7382°W)
Time: 20:47:45
(UTC+00:00)

Cosmos 44 - Pass Details

Date: 07 July 2022
Orbit: 595 x 766 km, 65.1° (Epoch: 13 August)

Event Time Altitude Azimuth Distance (km) Brightness Sun altitude
Exits shadow 05:12:03 28° 51° (NE) 1,205 4.7 -28.4°
Drops below altitude 10° 05:14:15 10° 39° (NE) 2,004 6.1 -28.5°
Sets 05:16:31 0° 35° (NE) 2,893 7.1 -28.6°
